TimeAKST,TemperatureF,Dew PointF,Humidity,Sea Level PressureIn,VisibilityMPH,Wind Direction,Wind SpeedMPH,Gust SpeedMPH,PrecipitationIn,Events,Conditions,WindDirDegrees,DateUTC
12:54 AM,18.0,7.0,62,30.69,10.0,NW,13.8,19.6,N/A,,Clear,310,2013-12-03 09:54:00
1:54 AM,19.9,7.0,57,30.68,10.0,WNW,11.5,-,N/A,,Clear,290,2013-12-03 10:54:00
2:54 AM,16.0,9.0,74,30.67,10.0,WNW,4.6,-,N/A,,Clear,300,2013-12-03 11:54:00
3:54 AM,17.1,7.0,65,30.67,10.0,WNW,9.2,-,N/A,,Clear,300,2013-12-03 12:54:00
4:54 AM,15.1,8.1,74,30.66,10.0,WNW,8.1,-,N/A,,Clear,300,2013-12-03 13:54:00
5:54 AM,12.9,7.0,77,30.65,10.0,WNW,9.2,-,N/A,,Clear,290,2013-12-03 14:54:00
6:54 AM,14.0,8.1,77,30.65,10.0,WNW,11.5,-,N/A,,Clear,290,2013-12-03 15:54:00
7:54 AM,16.0,9.0,74,30.66,10.0,WNW,9.2,-,N/A,,Clear,300,2013-12-03 16:54:00
8:54 AM,12.9,8.1,81,30.66,10.0,WNW,6.9,-,N/A,,Clear,290,2013-12-03 17:54:00
9:54 AM,18.0,12.0,78,30.64,10.0,Variable,3.5,-,N/A,,Clear,0,2013-12-03 18:54:00
10:54 AM,18.0,10.0,71,30.64,10.0,Variable,4.6,-,N/A,,Clear,0,2013-12-03 19:54:00
11:54 AM,19.0,10.9,71,30.62,10.0,WNW,8.1,-,N/A,,Clear,290,2013-12-03 20:54:00
12:40 PM,23.0,10.4,59,30.60,10.0,WNW,10.4,19.6,N/A,,Clear,300,2013-12-03 21:40:00
12:54 PM,21.9,10.9,63,30.61,10.0,WNW,11.5,-,N/A,,Clear,290,2013-12-03 21:54:00
1:54 PM,21.0,12.0,68,30.59,10.0,WNW,8.1,-,N/A,,Clear,290,2013-12-03 22:54:00
2:54 PM,21.0,12.0,68,30.59,10.0,WNW,6.9,-,N/A,,Clear,300,2013-12-03 23:54:00
3:54 PM,19.9,12.0,71,30.59,10.0,WNW,5.8,-,N/A,,Clear,290,2013-12-04 00:54:00
4:54 PM,17.1,12.0,81,30.58,10.0,WNW,3.5,-,N/A,,Clear,290,2013-12-04 01:54:00
5:54 PM,17.1,12.0,81,30.57,10.0,Calm,Calm,-,N/A,,Clear,0,2013-12-04 02:54:00
6:54 PM,17.1,12.0,81,30.57,10.0,Calm,Calm,-,N/A,,Clear,0,2013-12-04 03:54:00
7:54 PM,19.0,12.9,77,30.55,10.0,Variable,5.8,-,N/A,,Clear,0,2013-12-04 04:54:00
8:54 PM,18.0,12.9,81,30.54,10.0,NW,3.5,-,N/A,,Clear,310,2013-12-04 05:54:00
9:54 PM,19.9,12.9,74,30.54,10.0,WNW,9.2,-,N/A,,Clear,300,2013-12-04 06:54:00
10:54 PM,19.0,12.0,74,30.52,10.0,WNW,8.1,-,N/A,,Clear,300,2013-12-04 07:54:00
11:54 PM,19.9,12.9,74,30.49,10.0,Calm,Calm,-,N/A,,Clear,0,2013-12-04 08:54:00